TimeAKDT,TemperatureF,Dew PointF,Humidity,Sea Level PressureIn,VisibilityMPH,Wind Direction,Wind SpeedMPH,Gust SpeedMPH,PrecipitationIn,Events,Conditions,WindDirDegrees,DateUTC
12:56 AM,24.1,21.0,88,30.16,10.0,NNE,9.2,-,N/A,,Clear,20,2013-09-18 08:56:00
1:56 AM,26.1,22.1,85,30.15,10.0,NE,10.4,-,N/A,,Mostly Cloudy,50,2013-09-18 09:56:00
2:56 AM,24.1,21.0,88,30.14,10.0,NE,8.1,-,N/A,,Partly Cloudy,40,2013-09-18 10:56:00
3:56 AM,25.2,22.1,88,30.14,10.0,NNE,9.2,-,N/A,,Overcast,20,2013-09-18 11:56:00
4:56 AM,26.1,22.1,85,30.13,10.0,NNE,9.2,-,N/A,,Overcast,20,2013-09-18 12:56:00
5:56 AM,26.1,23.0,88,30.11,10.0,North,10.4,-,N/A,,Partly Cloudy,10,2013-09-18 13:56:00
6:56 AM,24.8,23.0,93,30.10,10.0,NE,8.1,-,N/A,,Mostly Cloudy,40,2013-09-18 14:56:00
7:56 AM,26.1,23.0,88,30.10,10.0,NNE,11.5,-,N/A,,Partly Cloudy,30,2013-09-18 15:56:00
8:56 AM,28.0,25.2,89,30.10,10.0,NE,11.5,-,N/A,,Overcast,40,2013-09-18 16:56:00
9:56 AM,29.1,26.1,88,30.09,10.0,NE,11.5,-,0.00,,Overcast,40,2013-09-18 17:56:00
10:56 AM,30.0,26.1,85,30.08,10.0,NE,17.3,-,N/A,,Overcast,40,2013-09-18 18:56:00
11:21 AM,30.2,26.6,86,30.07,10.0,NE,16.1,-,N/A,,Overcast,40,2013-09-18 19:21:00
11:56 AM,30.0,25.2,82,30.08,10.0,NE,12.7,-,N/A,,Overcast,50,2013-09-18 19:56:00
12:09 PM,30.2,24.8,80,30.06,10.0,NE,17.3,-,N/A,,Overcast,40,2013-09-18 20:09:00
12:16 PM,30.2,24.8,80,30.06,10.0,NE,16.1,-,N/A,,Overcast,40,2013-09-18 20:16:00
12:56 PM,30.2,23.0,75,30.06,10.0,NE,16.1,-,N/A,,Overcast,40,2013-09-18 20:56:00
1:56 PM,30.0,22.1,72,30.06,10.0,NE,15.0,-,N/A,,Overcast,50,2013-09-18 21:56:00
2:19 PM,30.2,23.0,75,30.04,10.0,ENE,13.8,-,N/A,,Overcast,60,2013-09-18 22:19:00
2:42 PM,30.2,23.0,75,30.04,10.0,NE,13.8,-,N/A,,Overcast,50,2013-09-18 22:42:00
2:56 PM,30.0,24.1,79,30.05,10.0,NE,13.8,-,N/A,,Overcast,50,2013-09-18 22:56:00
3:39 PM,30.2,24.8,80,30.03,10.0,NNE,12.7,-,N/A,,Overcast,20,2013-09-18 23:39:00
3:56 PM,30.2,26.6,86,30.02,10.0,North,12.7,-,N/A,,Overcast,10,2013-09-18 23:56:00
4:56 PM,30.0,26.1,85,30.03,7.0,NE,12.7,-,N/A,,Overcast,40,2013-09-19 00:56:00
5:56 PM,31.1,23.0,72,30.01,10.0,NE,16.1,-,N/A,,Overcast,40,2013-09-19 01:56:00
6:12 PM,30.2,21.2,69,30.00,10.0,NNE,17.3,-,N/A,,Overcast,30,2013-09-19 02:12:00
6:28 PM,30.2,21.2,69,30.00,10.0,NNE,20.7,-,N/A,,Overcast,20,2013-09-19 02:28:00
6:56 PM,30.2,21.2,69,29.99,10.0,NNE,19.6,-,N/A,,Overcast,20,2013-09-19 02:56:00
7:56 PM,28.0,24.1,85,30.01,10.0,NE,11.5,-,N/A,,Overcast,40,2013-09-19 03:56:00
8:56 PM,27.1,24.1,88,30.00,10.0,NE,9.2,-,0.00,,Overcast,50,2013-09-19 04:56:00
9:49 PM,26.6,24.8,93,29.98,9.0,NE,8.1,-,0.00,,Overcast,50,2013-09-19 05:49:00
9:56 PM,26.6,24.8,93,29.98,10.0,NE,10.4,-,N/A,,Overcast,50,2013-09-19 05:56:00
10:56 PM,27.1,24.1,88,29.98,10.0,NE,8.1,-,0.00,,Mostly Cloudy,40,2013-09-19 06:56:00
11:56 PM,27.1,24.1,88,29.98,7.0,NE,6.9,-,N/A,,Overcast,40,2013-09-19 07:56:00